Theta_e
293 293 294 294 296 296 296 296 295 296 298 297 297 297 297 299 300 302 302 304 305 305 303 303 302 302 307 312 314 315 316 318 318 318 316 317 317 317
293 294 294 294 295 296 295 296 296 295 295 296 296 296 297 297 299 300 300 300 301 304 304 302 301 303 307 309 311 312 313 313 312 312 311 308 309 312
291 293 293 294 294 295 296 296 296 296 296 295 295 296 296 297 297 299 301 300 300 300 303 304 302 302 306 307 307 309 308 308 306 303 304 303 306 302
290 293 293 294 295 295 296 296 297 296 296 295 295 295 295 295 295 296 298 299 300 300 300 301 302 303 302 305 305 304 303 304 305 303 302 301 302 302
290 291 293 293 293 295 296 297 297 296 296 296 296 295 294 295 295 295 296 297 298 299 300 299 299 302 302 303 304 303 301 301 301 300 298 297 297 297
290 291 291 293 293 295 295 295 296 296 296 296 296 294 294 294 294 294 294 294 295 296 297 299 299 298 300 303 303 302 302 300 299 298 296 296 295 295
290 291 292 294 294 294 293 294 295 295 296 296 296 295 295 294 293 291 291 293 293 294 295 296 297 297 298 299 302 303 302 302 300 299 297 296 295 296
290 291 292 293 294 292 293 293 294 296 294 293 293 294 293 293 292 293 291 291 292 293 293 294 295 296 296 297 299 302 303 302 302 301 300 299 297 297
291 291 292 293 295 294 292 291 290 291 294 292 291 291 292 292 292 291 290 291 291 291 291 293 293 294 296 296 297 298 300 302 302 301 301 301 300 301
291 291 292 293 294 294 293 292 291 290 290 291 291 290 291 292 292 291 290 289 289 290 290 291 293 293 295 295 295 295 296 297 298 300 301 301 301 301
290 291 292 293 294 295 293 292 292 291 290 290 290 290 291 293 292 291 290 288 289 290 290 291 292 292 293 293 294 294 294 294 294 296 297 298 299 300
290 290 291 293 294 293 293 292 292 291 289 289 289 289 289 289 289 290 289 287 287 288 291 291 291 291 291 292 292 292 292 293 292 292 293 295 297 298
289 290 290 292 293 293 293 292 292 291 289 287 287 287 288 288 288 288 288 286 287 287 288 288 288 289 289 289 290 290 290 290 290 290 290 291 293 295
289 289 290 291 291 291 291 292 292 289 288 288 288 288 288 287 287 287 288 288 288 287 287 287 287 287 287 287 287 288 288 288 288 289 289 289 290 292
288 289 289 289 288 288 289 290 289 288 288 288 287 288 289 288 288 288 288 288 288 288 288 288 287 287 287 287 287 287 288 288 288 288 288 288 289 290
288 288 287 287 287 287 287 287 288 288 288 288 287 287 287 288 289 289 289 288 288 288 289 289 289 288 287 287 287 288 288 287 288 288 287 287 288 288
288 287 287 287 287 287 286 286 286 286 287 287 287 287 287 287 288 289 289 289 289 289 289 290 290 289 289 288 287 287 288 288 288 288 287 287 287 287
288 287 287 287 287 286 286 286 286 285 286 286 286 286 287 287 287 288 288 289 289 289 289 290 290 289 289 289 289 289 288 288 288 288 288 288 288 287
288 288 287 287 287 286 286 285 285 285 285 286 286 286 286 286 286 287 287 287 287 288 288 288 289 289 289 290 289 290 289 289 289 289 288 288 287 287
288 287 287 287 287 287 287 286 285 285 285 285 286 286 286 286 287 287 287 286 286 287 287 287 287 288 288 289 289 289 289 289 289 289 289 288 289 288
287 287 287 287 287 287 287 286 286 286 286 286 286 286 286 285 286 286 286 286 287 286 285 286 286 287 288 288 288 288 289 289 288 289 289 289 289 289
287 287 286 287 287 287 287 286 286 286 286 286 286 285 285 285 285 286 286 285 285 285 285 286 287 287 287 287 288 288 288 288 288 288 288 289 289 290
286 286 286 287 287 286 287 286 286 286 286 285 285 285 285 285 285 285 286 285 285 285 285 285 286 287 287 287 288 288 287 287 287 287 288 287 287 288
Wind_Speed
17 15 14 12 7 7 6 5 3 3 3 8 13 18 16 14 14 9 9 7 8 4 2 4 6 8 6 4 1 7 7 9 16 13 13 9 8 5
17 16 16 14 10 5 5 4 2 1 2 6 7 13 13 12 11 9 8 7 6 5 3 3 5 5 4 3 2 4 7 8 7 4 1 4 2 3
19 17 18 15 10 8 6 4 1 2 2 2 6 8 9 8 9 7 3 7 6 4 3 2 5 5 4 2 2 4 4 6 6 5 5 4 4 3
20 19 21 17 18 10 7 6 4 1 2 2 3 7 9 10 9 8 5 6 7 6 4 4 4 7 7 7 8 6 7 7 7 7 6 6 6 6
18 17 19 23 19 15 13 8 2 2 1 3 2 2 5 7 9 7 6 5 5 7 9 7 7 6 8 10 12 11 10 10 10 8 8 7 7 6
15 16 16 18 21 14 13 13 10 4 1 2 1 1 2 3 5 7 8 9 10 8 8 11 13 11 8 11 15 16 14 14 12 10 10 9 8 8
16 17 17 15 16 16 15 13 12 10 4 2 1 2 1 2 3 4 5 12 13 13 12 11 10 12 12 12 14 17 18 17 15 14 13 12 11 11
17 17 17 16 15 13 14 13 13 12 7 6 6 4 2 4 5 5 5 5 4 6 13 16 14 14 10 11 13 16 19 19 19 17 16 17 16 15
16 17 18 20 19 8 15 11 10 9 9 9 8 7 7 6 9 9 10 11 12 16 17 16 16 18 12 13 12 13 14 18 20 21 22 21 20 19
14 14 15 19 19 5 14 14 12 10 10 10 9 9 8 7 7 7 10 13 14 14 12 9 12 17 15 13 13 14 15 16 17 18 20 20 24 23
13 12 13 15 16 8 12 16 14 13 12 10 10 9 9 7 5 7 8 7 6 7 10 10 7 12 14 22 20 16 18 18 18 22 22 22 22 22
14 13 12 14 13 12 13 13 15 13 15 15 10 8 9 8 8 9 9 5 6 7 4 6 7 7 6 8 9 7 9 9 10 13 17 23 22 22
16 16 16 15 13 12 11 12 12 12 13 13 11 12 12 11 9 8 8 9 8 10 12 9 7 8 6 8 13 15 18 22 23 22 20 20 17 20
14 14 15 14 13 12 11 11 11 10 12 11 10 12 12 11 11 12 11 12 14 18 18 13 9 10 12 14 12 15 17 22 19 21 22 22 19 19
12 11 11 12 12 12 11 11 11 11 12 12 12 10 11 12 11 12 12 10 11 15 18 18 20 22 20 18 20 19 21 18 21 23 27 25 22 21
13 12 11 10 11 12 12 11 11 9 11 12 13 13 11 10 10 10 11 12 14 14 12 12 15 19 23 23 23 26 23 15 15 20 22 25 26 25
11 11 12 15 16 16 16 14 12 12 12 12 13 14 14 12 11 8 9 11 11 14 19 16 12 14 17 21 21 24 26 25 25 24 21 23 23 23
10 12 14 15 16 18 19 20 17 17 15 14 14 13 14 15 15 14 13 14 15 16 18 20 17 14 14 16 17 25 21 22 23 21 20 20 22 24
10 13 14 15 17 18 19 19 20 19 15 15 14 13 14 15 14 17 17 17 17 18 20 20 19 13 7 8 13 16 23 21 22 21 21 22 24 25
12 14 16 16 17 16 19 19 19 19 18 18 15 15 14 15 17 18 18 18 17 18 18 19 17 16 12 9 12 22 20 19 21 20 20 21 27 27
14 15 16 16 15 16 16 19 19 19 17 18 17 16 16 16 17 17 19 17 17 17 15 16 20 14 16 15 9 14 18 16 16 21 21 18 18 16
14 15 16 15 14 15 15 17 19 21 21 21 21 18 19 18 18 18 19 19 20 19 19 21 19 15 11 6 10 14 18 19 16 13 12 15 13 4
13 14 15 14 14 16 15 18 19 21 22 22 20 22 23 23 21 20 19 19 19 19 20 20 19 14 10 8 9 11 14 17 17 17 17 13 12 14
Wind_Direction
4 3 357 352 359 1 6 2 1 344 358 359 11 20 35 41 51 74 85 91 129 166 202 285 315 320 318 328 163 170 149 154 125 120 95 111 118 80
11 11 11 358 350 2 359 5 0 335 328 358 359 5 7 22 31 43 52 55 92 85 163 242 288 296 319 274 101 149 160 158 134 162 145 68 45 68
9 11 14 5 357 353 350 341 357 320 294 334 358 28 36 4 3 6 349 350 26 52 39 255 249 274 267 252 209 173 161 152 150 152 141 178 233 355
2 13 17 10 16 5 342 328 298 289 288 321 358 14 13 1 351 344 333 299 285 311 332 331 290 249 256 236 238 223 201 185 171 165 164 163 152 166
2 2 5 14 12 18 24 16 302 278 295 262 316 14 351 8 2 347 341 322 314 279 273 290 306 285 243 245 240 236 226 214 199 190 191 191 201 204
1 5 3 3 8 8 9 14 15 286 270 329 276 346 2 360 17 4 352 344 336 328 307 271 269 285 274 245 241 240 234 229 226 227 225 222 222 223
360 0 2 357 4 8 11 355 2 2 353 330 43 4 328 343 15 360 328 332 329 321 313 315 291 278 268 264 245 237 241 240 239 242 245 241 233 233
352 355 354 358 350 354 1 1 359 5 14 25 16 4 20 353 310 358 330 343 322 337 342 310 311 303 294 278 263 246 231 240 248 253 248 249 246 242
350 349 355 359 355 340 359 358 358 6 17 7 346 330 327 327 311 323 323 310 288 293 308 301 296 296 288 289 276 268 250 235 235 240 241 250 250 247
348 348 351 354 359 13 7 8 7 5 355 341 325 314 311 302 293 320 317 315 308 307 286 273 282 285 296 286 276 270 264 268 265 252 242 240 243 246
354 358 356 355 356 331 350 359 358 358 348 335 320 314 308 329 308 296 304 321 315 318 300 285 298 303 299 294 289 273 264 268 269 265 260 255 250 252
357 360 357 352 353 351 350 348 348 351 351 342 338 316 308 304 281 281 289 282 295 306 27 326 328 327 305 287 279 299 290 283 292 292 275 262 257 255
354 357 358 352 348 349 349 349 344 335 341 358 356 355 347 326 301 292 294 272 263 258 270 313 291 306 276 298 295 293 288 288 287 286 275 272 270 254
353 358 354 351 351 349 348 343 341 336 340 341 343 344 347 344 336 327 313 291 275 266 279 275 269 269 278 285 284 293 291 292 294 285 282 276 266 257
354 354 352 352 354 355 354 345 339 340 342 340 334 333 338 340 328 325 324 314 300 291 283 278 265 272 264 264 274 281 290 286 278 276 280 277 273 268
354 354 359 1 6 4 3 358 351 346 337 329 331 327 327 326 335 328 323 329 319 322 322 302 286 272 263 262 268 275 274 267 278 275 275 278 274 270
344 347 356 1 3 4 4 7 3 356 349 338 333 332 331 329 319 328 322 316 298 296 304 314 307 292 283 279 267 268 272 273 273 271 270 269 270 269
349 345 348 354 356 355 355 354 360 356 353 346 340 332 326 326 323 321 304 293 289 293 292 296 299 292 288 284 267 267 274 272 280 277 268 263 267 269
356 341 344 350 351 352 354 353 350 352 349 349 345 341 332 327 326 324 321 313 293 287 288 292 288 281 286 285 283 266 261 276 284 276 270 260 263 276
350 342 344 350 349 348 352 355 351 352 353 351 348 347 340 331 330 329 327 318 308 304 300 303 295 279 263 277 288 294 291 291 283 284 277 272 274 280
349 348 350 353 347 347 347 347 354 353 344 351 350 348 345 339 332 334 334 325 319 317 304 305 320 307 293 292 274 279 296 313 307 289 291 281 274 269
347 349 352 353 345 347 345 347 344 350 353 351 351 352 350 346 340 332 336 332 328 322 316 328 335 332 314 261 279 288 303 328 332 318 304 284 283 289
349 351 353 351 346 348 349 346 346 347 352 351 350 350 352 346 345 338 336 339 339 332 334 329 341 344 330 307 300 315 317 336 335 331 337 345 314 296